Regional Weather Roundup
Issued by NWS Lake Charles, LA

Home | Current Version | Previous Version | Text Only | Print | Product List | Glossary On
Versions: 1 2 3 4 5 6 7 8 9 10 11 12 13 14 15 16 17 18 19 20 21 22 23 24 25 26 27
000
ASUS44 KLCH 040410
RWRLCH
REGIONAL WEATHER ROUNDUP
NATIONAL WEATHER SERVICE LAKE CHARLES LA
1100 PM CDT TUE MAY 03 2016

Note: "fair" indicates few or no clouds below 12,000 feet with no
significant weather and/or obstructions to visibility.


ACROSS SOUTHEAST TEXAS

CITY           SKY/WX    TMP DP  RH WIND       PRES   REMARKS
BEAUMONT       CLEAR     63  57  81 N7        30.02R
BEAUMONT CITY  FAIR      63  56  77 N3        30.04R
ORANGE         CLEAR     62  54  73 N3        30.04R
JASPER         CLEAR     57  55  94 CALM      30.07R
$$

ACROSS CENTRAL LOUISIANA

CITY           SKY/WX    TMP DP  RH WIND       PRES   REMARKS
LEESVILLE      CLEAR     58  53  82 N6        30.02R
FULLERTON      FAIR      60  53  77 CALM      30.00R
ALEXANDRIA INT CLEAR     61  54  77 N5        30.00R
ESLER FIELD    CLEAR     59  54  83 VRB3      30.01R
DERIDDER       FAIR      59  56  90 N3        30.05R
OAKDALE        CLEAR     59  56  91 CALM      30.01S
OPELOUSAS      FAIR      62  58  87 NW5       29.99S
$$

ACROSS SOUTHWEST AND SOUTH CENTRAL LOUISIANA

CITY           SKY/WX    TMP DP  RH WIND       PRES   REMARKS
SULPHUR        CLEAR     64  56  77 N3        30.02S
LAKE CHARLES   CLEAR     64  55  72 N6        30.01R
CHENNAULT INT  CLEAR     63  56  76 N7        30.01S
CAMERON PHI    PTCLDY    70  57  64 N12       30.03R
DEQUINCY       FAIR      59  56  88 NW3       30.03R
JENNINGS       FAIR      64  57  77 N7        30.00S
LAFAYETTE      PTCLDY    68  58  70 N6        29.99R
NEW IBERIA     MOCLDY    66  61  84 N5        29.99R
ABBEVILLE      CLOUDY    65  60  86 N6        29.99R
PATTERSON      NOT AVBL
SALT POINT       N/A     68  63  84 N3        29.96R
$$

SELECTED SITES ACROSS THE REGION

CITY           SKY/WX    TMP DP  RH WIND       PRES   REMARKS
HOUSTON BUSH   CLEAR     63  51  65 N6        30.05R
HOUSTON HOBBY  CLEAR     67  52  58 N8        30.04R
GALVESTON      CLEAR     70  56  61 N13       30.04R
COLLEGE STAT   CLEAR     61  48  62 N5        30.08R
CONROE         CLEAR     56  54  93 CALM      30.07R
HUNTSVILLE     CLEAR     58  52  80 CALM      30.07R
LUFKIN         CLEAR     55  52  89 CALM      30.05R
SHREVEPORT     PTCLDY    57  52  83 CALM      30.03S
MONROE         CLEAR     59  55  87 CALM      30.03R
NATCHEZ MS     CLEAR     57  54  88 CALM      30.00S
BATON ROUGE    CLEAR     65  55  70 CALM      29.97R
N.O. INTL ARPT PTCLDY    71  63  75 VRB7      29.94R
SLIDELL        CLEAR     67  60  78 N6        29.94R
$$

MARINE REPORTS

STATION/POSITION TIME  SKY/WX   TEMP    WIND        PRES    VSBY
                                AIR SEA DIR/SP/G
                 (UTC)          (F)     (DEG/KT/KT) (MB)    (MI)
BUOY 30 S HIGH I 0350            73 75  350/ 14/ 16 1016.0R
WVE H/P(F/S)=  2/ 7

SEA RIM ST PARK  0400            68      20/  8/  9 1017.1R
PORT ARTHUR      0300               75   10/  6/  8 1016.4R
SABINE PASS N    0300            71 77   10/ 11/ 13 1017.5R
TEXAS POINT      NOT AVBL
CALCASIEU PASS   0300            70 76   20/ 10/ 12 1015.0R
LK CHARLES BEACH 0300            67 73              1016.5R
MARSH ISLAND     NOT AVBL
FRESH WATER LOCK 0300            69 75  310/  4/  4 1015.6R
AMERADA PASS     0300            69 73   CALM  /  1 1014.3R
$$




USA.gov is the U.S. government's official web portal to all federal, state and local government web resources and services.